Weather History for Denver, CO

Change the Weather History Date:

Friday, February 22, 2013

  Actual Average Record
Temperature  
Mean Temperature 19 °F 34 °F  
Max Temperature 32 °F 48 °F 72 °F (1936)
Min Temperature 5 °F 20 °F -6 °F (1913)
Degree Days  
Heating Degree Days 46 31  
Month to date heating degree days 725 728  
Since 1 July heating degree days 4025 4259  
Cooling Degree Days 0 0  
Month to date cooling degree days 0 0  
Year to date cooling degree days 0 0  
Moisture  
Dew Point 10 °F    
Average Humidity 64    
Maximum Humidity 83    
Minimum Humidity 45    
Precipitation  
Precipitation 0.00 in 0.02 in 0.29 in (1914)
Month to date precipitation 0.24 0.28  
Year to date precipitation 0.55 0.69  
Snow  
Snow 0.00 in - - ()
Month to date snowfall 4  
Since 1 July snowfall 21  
Snow Depth 3.00 in    
Sea Level Pressure  
Sea Level Pressure 29.99 in    
Wind  
Wind Speed 10 mph (SSE)    
Max Wind Speed 16 mph    
Max Gust Speed 18 mph    
Visibility 9 miles    
Events      
T = Trace of Precipitation, MM = Missing Value Source: NWS Daily Summary

Daily Weather History Graph

Daily Weather History Graph

Search for Another Location

Airport:

Trip Planner

Search our weather history database for the weather conditions in past years. The results will help you decide how hot, cold, wet, or windy it might be!

Date:

Astronomy

Feb. 22, 2013 Rise Set
Actual Time 6:41 AM MST 5:43 PM MST
Civil Twilight 6:14 AM MST 6:10 PM MST
Nautical Twilight 5:42 AM MST 6:41 PM MST
Astronomical Twilight 5:11 AM MST 7:13 PM MST
Moon 2:57 PM MST 4:28 AM MST
Length of Visible Light 11h 56m
Length of Day
11h 01m
Waxing Gibbous, 90% of the Moon is Illuminated
Feb 22
Waxing Gibbous
Feb 25
Full
Mar 4
Last Quarter
Mar 11
New
Mar 19
First Quarter

Hourly Weather History & Observations

Time (MST) Temp. Windchill Dew Point Humidity Pressure Visibility Wind Dir Wind Speed Gust Speed Precip Events Conditions
12:53 AM 10.0 °F -3.7 °F 3.0 °F 73% 29.98 in 9.0 mi SSW 10.4 mph - N/A   Partly Cloudy
1:53 AM 10.9 °F -3.4 °F 3.9 °F 73% 29.96 in 7.0 mi South 11.5 mph - N/A   Partly Cloudy
2:53 AM 10.0 °F -1.9 °F 5.0 °F 80% 29.94 in 7.0 mi SSW 8.1 mph - N/A   Scattered Clouds
3:53 AM 5.0 °F -11.6 °F -0.9 °F 76% 29.97 in 7.0 mi South 12.7 mph - N/A   Scattered Clouds
4:53 AM 5.0 °F -13.0 °F -0.9 °F 76% 29.98 in 7.0 mi SSE 15.0 mph - N/A   Scattered Clouds
5:53 AM 8.1 °F -8.4 °F 1.0 °F 73% 29.97 in 7.0 mi SSE 13.8 mph - N/A   Partly Cloudy
6:53 AM 9.0 °F -7.3 °F 1.9 °F 73% 30.00 in 6.0 mi SSE 13.8 mph - N/A   Haze
7:53 AM 16.0 °F 2.3 °F 9.0 °F 74% 30.01 in 7.0 mi SSE 12.7 mph - N/A   Mostly Cloudy
8:53 AM 19.0 °F 6.8 °F 12.0 °F 74% 30.02 in 7.0 mi SSE 11.5 mph - N/A   Overcast
9:53 AM 26.1 °F 16.2 °F 16.0 °F 66% 30.00 in 10.0 mi SE 10.4 mph - N/A   Mostly Cloudy
10:53 AM 27.0 °F 17.3 °F 15.1 °F 61% 30.01 in 10.0 mi ESE 10.4 mph - N/A   Mostly Cloudy
11:53 AM 28.0 °F 19.3 °F 15.1 °F 58% 30.05 in 10.0 mi ESE 9.2 mph - N/A   Mostly Cloudy
12:53 PM 28.9 °F 19.8 °F 15.1 °F 56% 30.01 in 10.0 mi SE 10.4 mph - N/A   Scattered Clouds
1:53 PM 30.0 °F 21.1 °F 16.0 °F 56% 29.98 in 10.0 mi SSE 10.4 mph - N/A   Scattered Clouds
2:53 PM 32.0 °F 26.4 °F 14.0 °F 48% 29.98 in 10.0 mi South 5.8 mph - N/A   Scattered Clouds
3:53 PM 30.9 °F 26.2 °F 15.1 °F 52% 30.00 in 10.0 mi South 4.6 mph - N/A   Scattered Clouds
4:53 PM 28.9 °F 20.4 °F 14.0 °F 54% 30.01 in 10.0 mi ESE 9.2 mph - N/A   Scattered Clouds
5:53 PM 21.9 °F 12.5 °F 14.0 °F 72% 30.03 in 10.0 mi SSE 8.1 mph - N/A   Scattered Clouds
6:53 PM 19.9 °F 13.4 °F 12.0 °F 71% 30.03 in 10.0 mi SE 4.6 mph - N/A   Scattered Clouds
7:53 PM 19.9 °F 8.6 °F 12.0 °F 71% 30.01 in 10.0 mi South 10.4 mph - N/A   Scattered Clouds
8:53 PM 24.1 °F 12.0 °F 15.1 °F 69% 29.96 in 10.0 mi SSW 13.8 mph - N/A   Scattered Clouds
9:53 PM 23.0 °F 13.1 °F 12.9 °F 65% 29.93 in 10.0 mi SW 9.2 mph - N/A   Scattered Clouds
10:53 PM 21.0 °F 12.4 °F 12.0 °F 68% 29.92 in 10.0 mi SSW 6.9 mph - N/A   Partly Cloudy
11:53 PM 19.9 °F 7.9 °F 10.9 °F 68% 29.91 in 7.0 mi SSW 11.5 mph - N/A   Clear